Temp
59 59 58 56 55 54 53 56 53 53 52 52 52 52 53 56 55 52 52 50 48 48
58 57 57 56 55 56 54 55 56 54 52 52 52 53 52 58 56 57 56 55 54 51
59 59 59 58 55 56 55 53 54 56 53 53 52 52 52 53 56 55 57 57 55 52
59 59 59 57 56 57 57 54 53 55 54 53 55 54 53 53 52 55 55 54 52 51
58 59 57 57 57 58 58 55 55 55 56 57 55 55 54 54 56 55 52 52 52 54
57 57 57 57 58 59 58 59 59 58 56 57 53 51 50 51 55 55 51 49 53 55
57 57 57 58 58 58 56 55 58 58 55 57 55 56 54 50 53 55 53 49 51 56
57 58 58 58 58 58 55 54 55 56 58 53 55 53 53 52 50 52 54 49 49 53
58 58 57 57 57 56 56 58 57 57 56 55 55 49 49 52 51 53 51 51 49 54
58 57 57 58 58 57 54 55 55 57 58 57 56 48 47 50 52 51 50 50 50 50
58 58 58 58 58 57 54 53 53 53 56 57 58 48 46 47 52 52 51 50 52 51
58 58 58 57 57 56 53 53 52 53 53 54 55 47 46 48 57 51 50 51 52 53
59 58 57 53 53 52 52 52 53 53 53 52 55 48 45 47 52 54 51 53 52 48
59 58 55 52 53 52 52 53 53 53 53 54 54 55 45 45 52 48 52 50 49 52
MSLP
1024.40 1023.97 1023.65 1023.51 1023.23 1022.87 1022.44 1021.87 1021.62 1021.16 1020.67 1020.08 1019.39 1018.73 1018.12 1017.54 1016.99 1016.66 1016.17 1015.76 1015.28 1014.97
1024.47 1024.18 1023.86 1023.53 1023.33 1022.91 1022.52 1022.03 1021.40 1021.23 1020.68 1020.10 1019.60 1018.99 1018.35 1017.49 1017.14 1016.47 1015.95 1015.40 1015.12 1014.97
1024.36 1024.10 1023.79 1023.52 1023.31 1022.91 1022.50 1022.24 1021.71 1021.04 1020.69 1020.22 1019.73 1019.30 1018.71 1017.99 1017.22 1016.83 1016.19 1015.71 1015.50 1015.13
1024.38 1024.17 1023.95 1023.67 1023.43 1022.98 1022.45 1022.23 1021.85 1021.26 1020.83 1020.42 1019.84 1019.36 1018.84 1018.23 1017.69 1016.84 1016.42 1016.15 1015.82 1015.16
1024.57 1024.32 1024.19 1023.90 1023.53 1023.02 1022.50 1022.33 1021.93 1021.40 1020.83 1020.27 1020.05 1019.55 1019.10 1018.45 1017.87 1017.26 1016.86 1016.58 1016.09 1015.40
1024.75 1024.56 1024.39 1024.11 1023.64 1023.04 1022.71 1022.22 1021.63 1021.30 1020.96 1020.37 1020.22 1019.95 1019.59 1019.15 1018.29 1017.75 1017.54 1017.18 1016.35 1015.50
1025.04 1024.87 1024.61 1024.25 1023.81 1023.36 1023.15 1022.72 1022.04 1021.60 1021.38 1020.68 1020.44 1019.99 1019.58 1019.39 1018.82 1018.06 1017.70 1017.56 1016.99 1016.00
1025.28 1025.06 1024.79 1024.42 1023.98 1023.60 1023.32 1022.99 1022.53 1021.97 1021.36 1021.23 1020.77 1020.66 1020.05 1019.44 1019.10 1018.55 1017.86 1017.81 1017.42 1016.72
1025.36 1025.09 1024.80 1024.49 1024.18 1023.84 1023.46 1023.01 1022.55 1022.14 1021.80 1021.41 1021.12 1020.89 1020.38 1019.82 1019.28 1018.77 1018.41 1017.98 1017.67 1017.11
1025.35 1025.15 1024.95 1024.63 1024.25 1023.90 1023.72 1023.31 1022.88 1022.32 1021.89 1021.44 1021.27 1021.13 1020.51 1020.05 1019.60 1019.20 1018.84 1018.50 1018.06 1017.60
1025.30 1025.16 1025.08 1024.78 1024.41 1024.06 1024.01 1023.72 1023.25 1022.80 1022.29 1021.68 1021.36 1021.33 1020.74 1020.11 1019.81 1019.36 1019.03 1018.79 1018.34 1017.97
1025.33 1025.12 1024.98 1024.73 1024.60 1024.43 1024.23 1023.89 1023.52 1023.03 1022.57 1022.07 1021.67 1021.59 1021.07 1020.42 1019.50 1019.58 1019.25 1019.00 1018.69 1018.27
1025.32 1025.19 1024.99 1025.06 1024.84 1024.74 1024.53 1024.10 1023.66 1023.13 1022.71 1022.31 1021.85 1021.60 1021.38 1020.89 1020.25 1019.37 1019.35 1019.02 1018.94 1018.90
1025.24 1025.16 1025.13 1025.07 1024.88 1024.75 1024.46 1024.06 1023.62 1023.20 1022.83 1022.37 1022.06 1021.73 1021.63 1021.21 1020.58 1020.22 1019.49 1019.34 1019.16 1019.05
Wind_Speed
9 8 7 8 8 8 8 9 10 10 10 10 11 11 10 7 7 8 7 10 6 6
9 10 9 10 9 8 8 9 10 10 10 10 10 11 12 8 10 10 9 8 8 7
10 10 9 9 11 11 10 10 10 11 10 10 9 10 10 10 10 10 9 8 11 10
9 10 10 10 10 10 10 10 10 10 10 10 11 11 11 10 11 12 11 11 10 9
9 10 10 10 10 10 11 10 10 10 11 10 11 12 12 12 11 12 12 12 11 12
9 9 9 9 10 11 11 11 11 10 10 12 9 7 7 10 11 11 10 10 11 12
8 8 8 9 10 10 10 11 12 11 11 11 11 13 10 7 10 11 10 8 9 12
7 7 7 8 9 9 9 8 9 11 12 10 11 9 12 9 7 10 11 8 10 10
7 7 7 7 8 9 10 9 9 10 10 11 8 15 14 12 8 10 10 10 8 10
6 7 6 6 8 10 10 9 10 11 11 12 12 15 14 12 7 7 8 9 9 9
6 6 5 6 8 9 8 9 8 9 11 11 10 15 14 13 7 7 8 9 10 9
5 5 5 6 7 7 8 8 8 8 10 12 12 13 15 12 8 8 8 7 10 11
5 5 6 6 6 5 5 6 6 7 8 9 11 12 14 12 7 10 7 7 8 11
3 5 4 4 4 4 5 6 7 7 7 8 9 12 13 13 9 6 7 7 6 7
Wind_Direction
358 2 3 2 351 352 347 355 346 345 346 345 344 344 341 341 360 353 353 353 350 341
359 1 360 352 351 353 347 347 349 355 347 347 350 348 346 352 353 352 1 5 6 359
15 8 1 0 356 352 351 348 346 354 352 349 348 351 350 345 352 353 1 7 7 354
8 10 8 7 0 358 357 352 351 349 353 353 353 1 1 1 353 351 0 3 356 356
15 16 13 9 6 359 358 5 359 357 355 9 10 9 8 5 3 1 2 353 354 355
15 16 13 6 358 1 3 6 8 10 6 9 16 358 3 354 8 7 4 351 349 1
15 10 5 357 2 12 14 8 9 19 8 10 16 6 354 359 2 12 24 6 353 6
9 4 356 1 1 4 4 359 0 4 17 15 15 5 0 5 0 4 19 14 2 0
3 359 4 0 359 8 1 2 7 12 8 9 13 355 0 8 7 19 14 11 7 7
358 3 5 358 3 5 1 356 4 9 13 15 19 355 349 357 17 12 14 18 16 12
2 12 1 354 3 2 4 357 353 357 1 10 23 2 352 340 21 9 28 15 19 18
345 342 335 342 347 348 357 360 346 351 3 4 7 9 1 352 358 26 19 20 21 18
320 324 344 336 327 333 334 327 341 356 4 360 5 17 0 4 360 13 9 17 17 45
318 315 329 318 320 320 330 337 355 357 349 3 11 9 4 5 3 358 3 5 14 18